Location: Arleux
(50.3632°N, 2.8721°E)
Time: 11:49:47
(UTC+00:00)

SKYMED 2 - Pass Details

Date: 15 December 2019
Orbit: 621 x 623 km, 97.9° (Epoch: 27 January)

Event Time Altitude Azimuth Distance (km) Brightness Sun altitude
Rises 04:48:25 0° 163° (SSE) 2,894 7.3 -26.3°
Reaches altitude 10° 04:50:36 10° 164° (SSE) 1,992 6.4 -26.0°
Enters shadow 04:54:19 65° 160° (SSE) 688 3.7 -25.4°
